FW0202 Weather Reports


time (UTC)temp
F
wind
direction
speed
knots
gust
knots
rain 1hr
in
rain 24hr
in
rain mn
in
humidity
%
barometer
mb
20260505111308 68 169 4.3 4.3 0.00 0.00 0.00 93 998.8
20260505110802 68 167 4.3 5.2 0.00 0.00 0.00 93 998.6
20260505110302 68 168 3.5 5.2 0.00 0.00 0.00 92 998.8
20260505101737 67 173 3.5 4.3 0.00 0.00 0.00 91 998.6
20260505101230 67 168 4.3 4.3 0.00 0.00 0.00 91 998.8
20260505100724 67 173 3.5 5.2 0.00 0.00 0.00 91 998.5
20260505100210 67 174 4.3 5.2 0.00 0.00 0.00 91 998.4
20260505095646 67 177 3.5 4.3 0.00 0.00 0.00 91 998.4
20260505095143 67 179 3.5 4.3 0.00 0.00 0.00 91 998.4
20260505094842 67 177 3.5 4.3 0.00 0.00 0.00 91 998.2
20260505094114 67 180 4.3 4.3 0.00 0.00 0.00 91 998.3
20260505093843 68 180 3.5 5.2 0.00 0.00 0.00 90 998.2
20260505093104 68 177 3.5 5.2 0.00 0.00 0.00 90 998.1
20260505092600 68 163 3.5 5.2 0.00 0.00 0.00 90 997.9
20260505092047 68 173 4.3 4.3 0.00 0.00 0.00 90 998.0
20260505091543 68 176 3.5 4.3 0.00 0.00 0.00 90 998.0
20260505091052 68 173 3.5 4.3 0.00 0.00 0.00 90 998.0
20260505090528 68 172 4.3 4.3 0.00 0.00 0.00 90 997.7
20260505090029 68 161 3.5 4.3 0.00 0.00 0.00 90 997.7
20260505085750 68 168 3.5 4.3 0.00 0.00 0.00 90 997.6
20260505085229 69 167 3.5 4.3 0.00 0.00 0.00 90 997.8
20260505084500 69 175 4.3 5.2 0.00 0.00 0.00 89 997.8
20260505083954 69 180 3.5 5.2 0.00 0.00 0.00 89 997.6
20260505083439 69 156 3.5 5.2 0.00 0.00 0.00 89 997.3
20260505082916 69 174 3.5 5.2 0.00 0.00 0.00 89 997.2
20260505082630 69 170 3.5 5.2 0.00 0.00 0.00 88 997.2
20260505081907 69 162 4.3 5.2 0.00 0.00 0.00 89 997.1
20260505081403 69 164 4.3 5.2 0.00 0.00 0.00 88 997.3
20260505080857 69 162 3.5 5.2 0.00 0.00 0.00 88 997.0
20260505080356 70 166 3.5 6.1 0.00 0.00 0.00 87 996.8
20260505075831 70 166 3.5 6.1 0.00 0.00 0.00 87 996.9
20260505075550 70 189 3.5 5.2 0.00 0.00 0.00 87 996.8
20260505074812 71 178 2.6 4.3 0.00 0.00 0.00 86 996.5
20260505074307 71 158 3.5 5.2 0.00 0.00 0.00 86 996.5
20260505073753 71 156 3.5 5.2 0.00 0.00 0.00 85 996.4
20260505073249 71 184 2.6 5.2 0.00 0.00 0.00 85 996.3
20260505072744 71 180 3.5 5.2 0.00 0.00 0.00 85 996.3
20260505072240 72 171 3.5 5.2 0.00 0.00 0.00 84 996.4
20260505071736 72 188 2.6 5.2 0.00 0.00 0.00 84 996.2
20260505071656 72 169 3.5 5.2 0.00 0.00 0.00 84 996.1
20260505070706 72 173 4.3 4.3 0.00 0.00 0.00 83 995.8
20260505070154 73 169 3.5 4.3 0.00 0.00 0.00 82 996.0
20260505065649 73 181 4.3 4.3 0.00 0.00 0.00 82 995.8
20260505065134 73 177 3.5 4.3 0.00 0.00 0.00 80 995.7
20260505064630 74 177 3.5 4.3 0.00 0.00 0.00 78 995.8
20260505064116 74 176 4.3 5.2 0.00 0.00 0.00 77 995.9
20260505064053 74 182 3.5 5.2 0.00 0.00 0.00 76 995.8
20260505063333 75 179 3.5 5.2 0.00 0.00 0.00 76 995.8
20260505062603 75 176 3.5 4.3 0.00 0.00 0.00 75 995.7
20260505062048 76 182 3.5 5.2 0.00 0.00 0.00 73 995.7
20260505061546 76 188 4.3 5.2 0.00 0.00 0.00 76 995.6
20260505061031 76 178 4.3 5.2 0.00 0.00 0.00 74 995.6
20260505060527 76 179 4.3 5.2 0.00 0.00 0.00 73 995.5
20260505060012 76 174 3.5 5.2 0.00 0.00 0.00 75 995.5
20260505055508 76 184 3.5 5.2 0.00 0.00 0.00 72 995.5
20260505055003 76 175 3.5 5.2 0.00 0.00 0.00 72 995.4
20260505054710 77 185 3.5 5.2 0.00 0.00 0.00 69 995.2
20260505053945 77 177 4.3 5.2 0.00 0.00 0.00 71 995.4
20260505053440 77 172 3.5 5.2 0.00 0.00 0.00 71 995.3
20260505052916 77 174 4.3 5.2 0.00 0.00 0.00 71 995.2
20260505052411 77 173 3.5 5.2 0.00 0.00 0.00 72 995.2
20260505051908 78 179 3.5 5.2 0.00 0.00 0.00 72 995.1
20260505051354 78 177 3.5 5.2 0.00 0.00 0.00 70 995.0
20260505050849 78 178 3.5 5.2 0.00 0.00 0.00 72 995.1
20260505050602 78 182 4.3 5.2 0.00 0.00 0.00 69 995.4
20260505041751 79 170 3.5 5.2 0.00 0.00 0.00 65 995.1
20260505041728 79 174 4.3 5.2 0.00 0.00 0.00 69 995.3
20260505040748 79 174 3.5 5.2 0.00 0.00 0.00 69 995.1
20260505040245 79 174 4.3 5.2 0.00 0.00 0.00 71 995.2
20260505035742 78 180 3.5 5.2 0.00 0.00 0.00 70 995.3
20260505035453 79 179 3.5 5.2 0.00 0.00 0.00 68 995.1
20260505034713 80 176 4.3 5.2 0.00 0.00 0.00 69 995.0
20260505034209 80 176 3.5 5.2 0.00 0.00 0.00 64 995.1
20260505033916 80 181 3.5 7.0 0.00 0.00 0.00 65 995.1
20260505033150 80 177 3.5 7.0 0.00 0.00 0.00 69 995.2
20260505032645 81 190 4.3 6.1 0.00 0.00 0.00 68 995.0
20260505032141 82 202 5.2 6.1 0.00 0.00 0.00 63 995.2
20260505031848 82 190 4.3 6.1 0.00 0.00 0.00 65 995.4
20260505031123 82 180 3.5 5.2 0.00 0.00 0.00 67 995.4
20260505030619 82 182 3.5 6.1 0.00 0.00 0.00 68 995.3
20260505030119 81 180 3.5 6.1 0.00 0.00 0.00 66 995.6
20260505025619 80 165 5.2 6.1 0.00 0.00 0.00 69 995.6
20260505025118 81 189 2.6 6.1 0.00 0.00 0.00 68 995.5
20260505024619 80 201 3.5 6.1 0.00 0.00 0.00 68 995.7
20260505024117 79 186 3.5 6.1 0.00 0.00 0.00 71 995.8
20260505023613 78 200 4.3 7.8 0.00 0.00 0.00 75 995.5
20260505023110 79 191 2.6 7.8 0.00 0.00 0.00 72 995.8
20260505022605 81 205 7.0 7.8 0.00 0.00 0.00 68 996.1
20260505022102 80 187 3.5 8.7 0.00 0.00 0.00 71 996.0
20260505021557 80 195 4.3 8.7 0.00 0.00 0.00 72 996.2
20260505021053 80 205 5.2 6.1 0.00 0.00 0.00 72 996.2
20260505020548 78 179 3.5 5.2 0.00 0.00 0.00 75 996.1
20260505020259 77 166 3.5 5.2 0.00 0.00 0.00 75 996.3
20260505015746 78 181 3.5 6.1 0.00 0.00 0.00 75 996.3
20260505015016 78 183 3.5 6.1 0.00 0.00 0.00 76 996.4
20260505014744 77 175 3.5 5.2 0.00 0.00 0.00 78 996.5
20260505014008 77 195 4.3 5.2 0.00 0.00 0.00 74 996.4
20260505013453 77 191 4.3 5.2 0.00 0.00 0.00 75 996.9
20260505012949 77 196 4.3 5.2 0.00 0.00 0.00 73 997.0
20260505012446 76 171 3.5 5.2 0.00 0.00 0.00 78 997.0
20260505011932 77 195 3.5 5.2 0.00 0.00 0.00 75 997.2
20260505011416 76 177 3.5 6.1 0.00 0.00 0.00 78 997.2
20260505010915 78 181 4.3 6.1 0.00 0.00 0.00 75 997.1
20260505010416 78 188 3.5 5.2 0.00 0.00 0.00 73 997.4
20260505005915 78 205 5.2 5.2 0.00 0.00 0.00 74 997.3
20260505005619 77 178 3.5 6.1 0.00 0.00 0.00 74 997.3
20260505005115 76 186 3.5 6.1 0.00 0.00 0.00 75 997.4
20260505004353 76 169 3.5 5.2 0.00 0.00 0.00 78 997.4
20260505003848 74 180 3.5 5.2 0.00 0.00 0.00 79 997.3
20260505003343 76 167 3.5 5.2 0.00 0.00 0.00 78 997.4
20260505002820 76 164 4.3 5.2 0.00 0.00 0.00 78 997.5
20260505002316 76 171 2.6 5.2 0.00 0.00 0.00 78 997.5
20260505001812 75 175 3.5 5.2 0.00 0.00 0.00 79 997.7
20260505001258 74 176 3.5 5.2 0.00 0.00 0.00 79 997.8
20260505001238 75 185 3.5 5.2 0.00 0.00 0.00 79 997.8
20260505000249 74 183 4.3 5.2 0.00 0.00 0.00 81 998.0
20260504235734 74 168 4.3 7.0 0.00 0.00 0.00 79 997.8
20260504235231 75 176 4.3 7.8 0.00 0.00 0.00 77 997.7
20260504234726 76 184 5.2 7.8 0.00 0.00 0.00 76 998.0
20260504234221 76 172 2.6 6.1 0.00 0.00 0.00 76 997.9
20260504233719 74 191 3.5 4.3 0.00 0.00 0.00 81 997.8
20260504233213 74 170 3.5 5.2 0.00 0.00 0.00 80 997.9
20260504232709 73 177 3.5 5.2 0.00 0.00 0.00 82 997.9
20260504232426 72 185 3.5 6.1 0.00 0.00 0.00 82 998.0
20260504231652 71 184 3.5 6.1 0.00 0.00 0.00 83 997.9
20260504231407 72 191 4.3 6.1 0.00 0.00 0.00 82 998.0
20260504230642 72 170 4.3 6.1 0.00 0.00 0.00 83 998.0
20260504230400 72 205 5.2 6.1 0.00 0.00 0.00 81 998.2
20260504225642 73 185 3.5 5.2 0.00 0.00 0.00 81 997.7
20260504225141 71 181 3.5 5.2 0.00 0.00 0.00 84 998.0
20260504224636 70 170 4.3 5.2 0.00 0.00 0.00 84 998.1
20260504224134 69 167 4.3 5.2 0.00 0.00 0.00 86 998.1
20260504223629 69 174 3.5 5.2 0.00 0.00 0.00 85 998.3
20260504223125 69 169 5.2 5.2 0.00 0.00 0.00 85 998.1
20260504222620 67 180 3.5 5.2 0.00 0.00 0.00 92 998.2
20260504222116 66 167 4.3 5.2 0.00 0.00 0.00 94 998.1
20260504221610 65 165 4.3 5.2 0.00 0.00 0.00 96 998.1
20260504221333 64 164 4.3 5.2 0.00 0.00 0.00 97 998.1
20260504220603 64 170 4.3 5.2 0.00 0.00 0.00 97 998.1
20260504220100 64 174 4.3 5.2 0.00 0.00 0.00 98 998.0
20260504215545 64 176 4.3 5.2 0.00 0.00 0.00 98 997.9
20260504215044 64 176 3.5 6.1 0.00 0.00 0.00 98 998.0
20260504214759 63 189 4.3 6.1 0.00 0.00 0.00 98 998.0
20260504214022 63 180 3.5 6.1 0.00 0.00 0.00 98 997.9
20260504213518 62 193 4.3 5.2 0.00 0.00 0.00 98 998.0
20260504213010 62 185 4.3 5.2 0.00 0.00 0.00 98 997.9
20260504212510 62 190 5.2 5.2 0.00 0.00 0.00 98 997.7
20260504211946 62 199 5.2 5.2 0.00 0.00 0.00 98 997.6
20260504211432 62 180 4.3 5.2 0.00 0.00 0.00 98 997.9
20260504210927 61 178 3.5 5.2 0.00 0.00 0.00 99 997.9
20260504210413 61 180 4.3 5.2 0.00 0.00 0.00 98 997.6
20260504210136 61 169 4.3 5.2 0.00 0.00 0.00 98 997.7
20260504205405 61 172 4.3 5.2 0.00 0.00 0.00 99 997.6
20260504204831 61 180 3.5 5.2 0.00 0.00 0.00 99 997.6
20260504204326 60 177 4.3 5.2 0.00 0.00 0.00 99 997.5
20260504203811 60 176 4.3 5.2 0.00 0.00 0.00 99 997.6
20260504203308 60 182 4.3 5.2 0.00 0.00 0.00 99 997.4
20260504202804 60 177 3.5 5.2 0.00 0.00 0.00 99 997.5
20260504202249 60 179 4.3 4.3 0.00 0.00 0.00 99 997.2
20260504201745 60 184 3.5 4.3 0.00 0.00 0.00 99 997.4
20260504201231 60 177 3.5 4.3 0.00 0.00 0.00 98 997.1
20260504200726 60 179 4.3 4.3 0.00 0.00 0.00 98 997.2
20260504200222 60 180 3.5 5.2 0.00 0.00 0.00 99 997.2
20260504195720 60 172 4.3 5.2 0.00 0.00 0.00 98 997.3
20260504195214 61 184 4.3 5.2 0.00 0.00 0.00 98 997.2
20260504194707 61 176 4.3 5.2 0.00 0.00 0.00 99 997.1
20260504194207 61 178 4.3 5.2 0.00 0.00 0.00 98 997.0
20260504193901 61 173 4.3 5.2 0.00 0.00 0.00 99 997.1
20260504193137 61 178 4.3 5.2 0.00 0.00 0.00 99 997.2
20260504192637 61 174 4.3 5.2 0.00 0.00 0.00 98 997.1
20260504192359 61 175 4.3 5.2 0.00 0.00 0.00 99 996.9
20260504191615 61 173 4.3 5.2 0.00 0.00 0.00 98 997.0
20260504191106 61 168 4.3 5.2 0.00 0.00 0.00 98 997.2
20260504190547 61 168 4.3 5.2 0.00 0.00 0.00 98 997.1
20260504190042 61 176 4.3 5.2 0.00 0.00 0.00 98 997.0
20260504185539 61 171 4.3 5.2 0.00 0.00 0.00 98 996.9
20260504185036 61 170 4.3 5.2 0.00 0.01 0.00 98 996.7
20260504184521 61 175 4.3 5.2 0.00 0.04 0.00 98 996.6
20260504184005 61 179 3.5 5.2 0.00 0.05 0.00 98 996.7
20260504183452 61 173 4.3 5.2 0.00 0.07 0.00 98 996.8
20260504183202 61 172 4.3 5.2 0.00 0.09 0.00 98 996.7
20260504182912 61 167 4.3 5.2 0.00 0.10 0.00 98 996.6
20260504181929 61 180 4.3 4.3 0.00 0.10 0.00 98 996.4
20260504181426 61 178 3.5 5.2 0.00 0.10 0.00 98 996.4
20260504180912 61 172 4.3 5.2 0.00 0.10 0.00 98 996.5
20260504180356 61 167 4.3 5.2 0.00 0.10 0.00 98 996.3
20260504175831 61 169 4.3 5.2 0.00 0.10 0.00 98 996.5
20260504175805 61 176 3.5 5.2 0.00 0.10 0.00 98 996.6
20260504174825 61 171 4.3 5.2 0.00 0.10 0.00 98 996.2
20260504174320 61 180 4.3 5.2 0.00 0.10 0.00 98 996.4
20260504173756 61 181 4.3 5.2 0.00 0.10 0.00 98 996.3
20260504173510 61 171 4.3 5.2 0.00 0.10 0.00 98 996.3
20260504172747 61 174 4.3 5.2 0.00 0.10 0.00 98 996.3
20260504172232 61 177 4.3 5.2 0.00 0.10 0.00 98 996.3
20260504171740 61 194 4.3 5.2 0.00 0.10 0.00 98 996.2
20260504171650 61 182 4.3 5.2 0.00 0.10 0.00 98 996.4
20260504170710 61 200 5.2 5.2 0.00 0.10 0.00 98 996.3
20260504170428 62 191 4.3 5.2 0.00 0.10 0.00 98 996.4
20260504150831 63 174 3.5 5.2 0.00 0.20 0.00 98 997.3
20260504150326 63 175 4.3 5.2 0.00 0.20 0.00 97 997.3
20260504141204 64 180 3.5 5.2 0.00 0.21 0.00 97 997.7
20260504140700 64 179 3.5 5.2 0.00 0.21 0.00 97 997.7
20260504140157 64 182 4.3 4.3 0.00 0.21 0.00 97 997.8
20260504130458 65 174 3.5 4.3 0.00 0.23 0.21 97 997.8